QPF
0.02 0.02 0.02 0.03 0.05 0.08 0.08 0.10 0.10 0.08 0.06 0.05 0.03 0.01 0.01 0.02 0.03 0.03 0.02 0.02 0.02 0.01 0.01 0.01 0.01 0.01 0.01 0.01 0.02 0.03 0.03 0.03 0.02 0.02 0.02 0.02 0.02 0.02
0.02 0.03 0.03 0.03 0.04 0.05 0.07 0.08 0.08 0.07 0.06 0.04 0.02 0.01 0.01 0.01 0.01 0.02 0.02 0.02 0.02 0.01 0.01 0.01 0.01 0.01 0.01 0.01 0.01 0.01 0.02 0.03 0.03 0.03 0.02 0.02 0.02 0.02
0.02 0.02 0.03 0.03 0.04 0.05 0.05 0.06 0.07 0.06 0.06 0.04 0.03 0.02 0.01 0.01 0.01 0.01 0.01 0.01 0.01 0.01 0.01 0.01 0.01 0.02 0.02 0.02 0.02 0.01 0.01 0.01 0.02 0.03 0.03 0.02 0.02 0.02
0.01 0.02 0.03 0.03 0.03 0.04 0.05 0.05 0.05 0.06 0.05 0.05 0.04 0.04 0.02 0.01 0.01 0.01 0.01 0.01 0.01 0.01 0.01 0.01 0.01 0.02 0.02 0.02 0.02 0.02 0.02 0.01 0.01 0.02 0.03 0.02 0.03 0.03
0.01 0.01 0.02 0.03 0.03 0.03 0.04 0.05 0.05 0.05 0.05 0.05 0.04 0.04 0.03 0.02 0.01 0.01 0.01 0.01 0.01 0.01 0.01 0.01 0.02 0.02 0.02 0.02 0.02 0.02 0.02 0.02 0.02 0.02 0.03 0.03 0.03 0.03
0.01 0.01 0.01 0.02 0.02 0.03 0.03 0.04 0.05 0.06 0.05 0.05 0.05 0.04 0.04 0.02 0.02 0.01 0.01 0.01 0.01 0.01 0.01 0.02 0.01 0.01 0.02 0.02 0.02 0.02 0.03 0.03 0.03 0.03 0.02 0.02 0.02 0.03
0.01 0.01 0.01 0.02 0.02 0.02 0.03 0.04 0.05 0.07 0.07 0.06 0.05 0.05 0.04 0.03 0.03 0.02 0.02 0.02 0.01 0.01 0.01 0.01 0.01 0.01 0.01 0.02 0.03 0.03 0.03 0.03 0.03 0.04 0.03 0.03 0.02 0.02
0.01 0.01 0.02 0.02 0.02 0.02 0.03 0.04 0.06 0.07 0.07 0.07 0.05 0.05 0.03 0.03 0.03 0.03 0.03 0.03 0.02 0.01 0.02 0.01 0.01 0.01 0.01 0.02 0.03 0.03 0.03 0.03 0.03 0.02 0.03 0.04 0.03 0.02
0.01 0.01 0.02 0.02 0.02 0.02 0.02 0.03 0.03 0.04 0.06 0.06 0.05 0.04 0.02 0.02 0.03 0.03 0.03 0.03 0.03 0.02 0.02 0.02 0.02 0.02 0.01 0.02 0.03 0.04 0.03 0.02 0.03 0.02 0.02 0.03 0.03 0.03
0.01 0.01 0.01 0.01 0.02 0.02 0.03 0.03 0.02 0.02 0.02 0.03 0.03 0.03 0.03 0.03 0.04 0.05 0.05 0.04 0.03 0.02 0.02 0.03 0.02 0.01 0.01 0.02 0.03 0.04 0.05 0.04 0.03 0.03 0.03 0.02 0.02 0.03
0.01 0.01 0.01 0.01 0.01 0.02 0.02 0.03 0.02 0.02 0.02 0.03 0.03 0.04 0.04 0.05 0.05 0.06 0.06 0.06 0.05 0.03 0.03 0.03 0.02 0.02 0.02 0.02 0.03 0.03 0.05 0.06 0.06 0.05 0.03 0.03 0.02 0.02
0.00 0.00 0.01 0.01 0.02 0.02 0.03 0.03 0.04 0.03 0.03 0.02 0.02 0.03 0.03 0.03 0.04 0.05 0.05 0.05 0.06 0.05 0.04 0.04 0.03 0.03 0.03 0.02 0.02 0.03 0.03 0.04 0.05 0.05 0.04 0.04 0.03 0.02
0.01 0.00 0.00 0.01 0.02 0.03 0.03 0.04 0.04 0.05 0.04 0.03 0.02 0.02 0.03 0.04 0.04 0.04 0.04 0.05 0.06 0.06 0.05 0.05 0.05 0.04 0.05 0.04 0.02 0.03 0.03 0.04 0.05 0.04 0.04 0.04 0.04 0.03
0.01 0.01 0.00 0.01 0.02 0.02 0.03 0.04 0.04 0.04 0.05 0.04 0.04 0.03 0.04 0.04 0.04 0.03 0.04 0.04 0.05 0.05 0.05 0.05 0.07 0.07 0.07 0.06 0.04 0.03 0.03 0.04 0.04 0.03 0.03 0.04 0.04 0.03
0.01 0.01 0.01 0.02 0.02 0.02 0.01 0.02 0.02 0.03 0.03 0.04 0.04 0.04 0.04 0.04 0.03 0.03 0.03 0.04 0.05 0.05 0.05 0.06 0.07 0.08 0.09 0.09 0.06 0.05 0.04 0.05 0.04 0.03 0.03 0.04 0.04 0.04
0.02 0.01 0.01 0.01 0.01 0.01 0.00 0.01 0.01 0.01 0.02 0.03 0.04 0.04 0.04 0.04 0.05 0.05 0.05 0.05 0.05 0.05 0.05 0.06 0.08 0.10 0.10 0.09 0.09 0.08 0.07 0.07 0.05 0.04 0.04 0.05 0.06 0.05
0.03 0.02 0.01 0.01 0.00 0.00 0.00 0.00 0.01 0.01 0.02 0.02 0.02 0.03 0.04 0.04 0.04 0.05 0.06 0.06 0.06 0.05 0.05 0.06 0.07 0.09 0.10 0.10 0.10 0.09 0.08 0.08 0.07 0.06 0.05 0.06 0.07 0.06
0.03 0.02 0.01 0.01 0.01 0.01 0.01 0.01 0.00 0.01 0.01 0.02 0.02 0.03 0.03 0.03 0.03 0.04 0.05 0.05 0.06 0.05 0.05 0.05 0.06 0.07 0.08 0.08 0.09 0.09 0.08 0.08 0.08 0.07 0.06 0.06 0.06 0.05
0.03 0.02 0.01 0.01 0.01 0.01 0.01 0.01 0.01 0.01 0.01 0.02 0.03 0.02 0.03 0.03 0.03 0.03 0.03 0.04 0.04 0.03 0.04 0.04 0.06 0.07 0.08 0.07 0.06 0.06 0.07 0.08 0.07 0.07 0.06 0.06 0.06 0.05
0.02 0.02 0.02 0.01 0.01 0.01 0.01 0.01 0.01 0.01 0.02 0.02 0.02 0.03 0.03 0.03 0.03 0.03 0.03 0.03 0.03 0.03 0.03 0.03 0.04 0.05 0.06 0.05 0.05 0.04 0.05 0.06 0.06 0.06 0.05 0.05 0.05 0.05
0.01 0.01 0.01 0.01 0.01 0.01 0.01 0.01 0.01 0.01 0.02 0.02 0.02 0.02 0.03 0.03 0.03 0.03 0.03 0.03 0.03 0.03 0.03 0.03 0.02 0.02 0.04 0.05 0.05 0.04 0.04 0.04 0.04 0.06 0.06 0.06 0.06 0.06
0.01 0.01 0.01 0.01 0.01 0.01 0.01 0.01 0.01 0.01 0.01 0.02 0.02 0.02 0.02 0.03 0.03 0.02 0.03 0.03 0.03 0.03 0.03 0.02 0.02 0.03 0.05 0.06 0.05 0.04 0.05 0.05 0.04 0.05 0.06 0.07 0.08 0.08
0.01 0.01 0.01 0.01 0.01 0.01 0.01 0.01 0.01 0.01 0.01 0.02 0.02 0.02 0.02 0.02 0.02 0.02 0.02 0.03 0.03 0.03 0.03 0.03 0.03 0.04 0.05 0.05 0.05 0.05 0.05 0.06 0.07 0.07 0.07 0.06 0.06 0.06
MSLP
1026.21 1026.70 1027.17 1027.60 1027.97 1028.29 1028.53 1028.72 1028.86 1028.97 1029.04 1029.10 1029.14 1029.16 1029.15 1029.12 1029.05 1028.96 1028.85 1028.73 1028.61 1028.49 1028.38 1028.28 1028.17 1028.06 1027.94 1027.79 1027.61 1027.40 1027.18 1026.94 1026.69 1026.45 1026.21 1025.96 1025.71 1025.44
1025.80 1026.31 1026.81 1027.27 1027.68 1028.02 1028.30 1028.52 1028.68 1028.81 1028.91 1028.98 1029.03 1029.05 1029.04 1029.00 1028.92 1028.81 1028.68 1028.53 1028.38 1028.23 1028.10 1027.97 1027.84 1027.71 1027.56 1027.40 1027.21 1026.99 1026.76 1026.51 1026.26 1026.01 1025.75 1025.49 1025.22 1024.94
1025.24 1025.78 1026.30 1026.78 1027.22 1027.59 1027.91 1028.16 1028.37 1028.54 1028.67 1028.77 1028.83 1028.86 1028.85 1028.80 1028.70 1028.57 1028.41 1028.23 1028.05 1027.88 1027.71 1027.56 1027.41 1027.26 1027.10 1026.92 1026.73 1026.50 1026.26 1026.01 1025.75 1025.48 1025.20 1024.92 1024.62 1024.30
1024.57 1025.12 1025.65 1026.15 1026.61 1027.01 1027.36 1027.66 1027.91 1028.12 1028.29 1028.42 1028.51 1028.55 1028.54 1028.47 1028.36 1028.21 1028.02 1027.82 1027.61 1027.41 1027.23 1027.06 1026.90 1026.74 1026.58 1026.39 1026.19 1025.97 1025.72 1025.45 1025.17 1024.88 1024.58 1024.26 1023.92 1023.56
1023.87 1024.42 1024.95 1025.45 1025.92 1026.34 1026.72 1027.05 1027.34 1027.59 1027.79 1027.95 1028.05 1028.10 1028.09 1028.02 1027.89 1027.72 1027.51 1027.29 1027.07 1026.86 1026.66 1026.49 1026.33 1026.17 1026.01 1025.83 1025.63 1025.40 1025.14 1024.86 1024.56 1024.23 1023.90 1023.54 1023.16 1022.76
1023.22 1023.75 1024.27 1024.77 1025.23 1025.65 1026.04 1026.39 1026.71 1026.98 1027.20 1027.38 1027.50 1027.55 1027.54 1027.45 1027.32 1027.13 1026.92 1026.69 1026.46 1026.25 1026.07 1025.90 1025.75 1025.60 1025.44 1025.26 1025.05 1024.81 1024.54 1024.24 1023.91 1023.56 1023.18 1022.79 1022.37 1021.92
1022.69 1023.21 1023.71 1024.18 1024.62 1025.03 1025.42 1025.77 1026.08 1026.36 1026.60 1026.78 1026.90 1026.95 1026.93 1026.85 1026.71 1026.52 1026.31 1026.08 1025.87 1025.67 1025.50 1025.34 1025.20 1025.06 1024.90 1024.72 1024.50 1024.24 1023.95 1023.62 1023.25 1022.87 1022.46 1022.03 1021.58 1021.11
1022.35 1022.84 1023.31 1023.75 1024.16 1024.54 1024.90 1025.23 1025.54 1025.81 1026.04 1026.21 1026.33 1026.38 1026.36 1026.27 1026.14 1025.96 1025.76 1025.55 1025.35 1025.18 1025.02 1024.88 1024.74 1024.59 1024.42 1024.22 1023.98 1023.69 1023.36 1023.00 1022.60 1022.18 1021.75 1021.30 1020.83 1020.34
1022.19 1022.65 1023.09 1023.49 1023.86 1024.20 1024.53 1024.83 1025.11 1025.36 1025.57 1025.74 1025.85 1025.89 1025.87 1025.80 1025.67 1025.51 1025.33 1025.15 1024.98 1024.82 1024.67 1024.53 1024.39 1024.23 1024.03 1023.79 1023.51 1023.17 1022.80 1022.39 1021.96 1021.51 1021.06 1020.59 1020.11 1019.62
1022.17 1022.61 1023.01 1023.37 1023.70 1024.00 1024.29 1024.56 1024.81 1025.04 1025.23 1025.39 1025.49 1025.53 1025.52 1025.45 1025.35 1025.22 1025.07 1024.91 1024.76 1024.62 1024.48 1024.33 1024.16 1023.96 1023.72 1023.43 1023.08 1022.69 1022.26 1021.80 1021.33 1020.85 1020.38 1019.91 1019.43 1018.94
1022.25 1022.65 1023.02 1023.34 1023.64 1023.91 1024.17 1024.41 1024.63 1024.84 1025.01 1025.15 1025.25 1025.30 1025.30 1025.25 1025.17 1025.07 1024.94 1024.82 1024.68 1024.55 1024.40 1024.23 1024.02 1023.77 1023.46 1023.10 1022.68 1022.21 1021.72 1021.21 1020.70 1020.19 1019.71 1019.23 1018.76 1018.28
1022.36 1022.73 1023.07 1023.37 1023.64 1023.89 1024.12 1024.34 1024.54 1024.73 1024.89 1025.02 1025.11 1025.17 1025.18 1025.16 1025.10 1025.02 1024.92 1024.80 1024.68 1024.54 1024.37 1024.16 1023.91 1023.59 1023.21 1022.77 1022.26 1021.72 1021.16 1020.60 1020.04 1019.51 1019.01 1018.53 1018.06 1017.59
1022.47 1022.82 1023.14 1023.42 1023.68 1023.91 1024.12 1024.32 1024.51 1024.69 1024.84 1024.96 1025.05 1025.11 1025.13 1025.11 1025.07 1025.00 1024.91 1024.81 1024.68 1024.52 1024.32 1024.06 1023.75 1023.36 1022.91 1022.38 1021.80 1021.19 1020.56 1019.94 1019.34 1018.78 1018.25 1017.76 1017.29 1016.82
1022.59 1022.92 1023.22 1023.49 1023.74 1023.96 1024.17 1024.36 1024.54 1024.70 1024.83 1024.95 1025.03 1025.07 1025.09 1025.07 1025.03 1024.96 1024.87 1024.75 1024.60 1024.41 1024.17 1023.86 1023.49 1023.03 1022.51 1021.91 1021.26 1020.58 1019.89 1019.21 1018.57 1017.97 1017.42 1016.91 1016.43 1015.95
1022.72 1023.04 1023.34 1023.60 1023.85 1024.07 1024.27 1024.45 1024.61 1024.75 1024.86 1024.95 1025.01 1025.04 1025.03 1025.00 1024.93 1024.84 1024.73 1024.58 1024.39 1024.16 1023.87 1023.51 1023.08 1022.56 1021.97 1021.31 1020.60 1019.86 1019.12 1018.40 1017.71 1017.08 1016.49 1015.95 1015.44 1014.95
1022.90 1023.21 1023.50 1023.77 1024.01 1024.22 1024.41 1024.57 1024.71 1024.83 1024.91 1024.97 1024.99 1024.98 1024.94 1024.86 1024.76 1024.63 1024.47 1024.27 1024.04 1023.75 1023.41 1023.00 1022.51 1021.94 1021.30 1020.59 1019.83 1019.05 1018.27 1017.50 1016.77 1016.09 1015.47 1014.88 1014.34 1013.81
1023.12 1023.43 1023.72 1023.98 1024.21 1024.41 1024.58 1024.72 1024.83 1024.91 1024.96 1024.97 1024.94 1024.88 1024.79 1024.66 1024.50 1024.31 1024.09 1023.84 1023.54 1023.20 1022.80 1022.33 1021.79 1021.18 1020.50 1019.75 1018.96 1018.14 1017.32 1016.52 1015.75 1015.02 1014.35 1013.72 1013.13 1012.56
1023.36 1023.67 1023.94 1024.19 1024.41 1024.59 1024.74 1024.85 1024.92 1024.96 1024.96 1024.92 1024.85 1024.73 1024.57 1024.39 1024.16 1023.91 1023.62 1023.30 1022.94 1022.54 1022.07 1021.55 1020.97 1020.31 1019.59 1018.81 1018.00 1017.15 1016.30 1015.46 1014.65 1013.88 1013.15 1012.47 1011.82 1011.20
1023.57 1023.86 1024.12 1024.35 1024.54 1024.69 1024.81 1024.88 1024.92 1024.92 1024.88 1024.79 1024.67 1024.50 1024.29 1024.04 1023.75 1023.43 1023.08 1022.69 1022.26 1021.79 1021.27 1020.69 1020.06 1019.36 1018.61 1017.80 1016.95 1016.08 1015.20 1014.33 1013.48 1012.66 1011.88 1011.14 1010.44 1009.77
1023.68 1023.94 1024.17 1024.37 1024.53 1024.64 1024.73 1024.77 1024.77 1024.73 1024.65 1024.53 1024.36 1024.15 1023.89 1023.59 1023.25 1022.87 1022.46 1022.01 1021.51 1020.98 1020.40 1019.77 1019.08 1018.34 1017.54 1016.70 1015.82 1014.92 1014.01 1013.10 1012.21 1011.34 1010.51 1009.72 1008.97 1008.25
1023.61 1023.83 1024.02 1024.18 1024.30 1024.38 1024.43 1024.44 1024.42 1024.35 1024.25 1024.10 1023.90 1023.66 1023.37 1023.03 1022.65 1022.23 1021.76 1021.25 1020.70 1020.10 1019.46 1018.76 1018.02 1017.23 1016.38 1015.50 1014.58 1013.63 1012.68 1011.73 1010.80 1009.89 1009.01 1008.18 1007.39 1006.63
1023.34 1023.51 1023.65 1023.76 1023.84 1023.88 1023.90 1023.88 1023.84 1023.75 1023.63 1023.47 1023.26 1023.00 1022.69 1022.33 1021.91 1021.45 1020.94 1020.38 1019.77 1019.11 1018.41 1017.65 1016.85 1015.99 1015.08 1014.14 1013.16 1012.16 1011.16 1010.16 1009.18 1008.23 1007.32 1006.45 1005.64 1004.87
1022.87 1022.98 1023.07 1023.13 1023.16 1023.17 1023.15 1023.11 1023.04 1022.94 1022.81 1022.64 1022.42 1022.15 1021.82 1021.45 1021.01 1020.52 1019.97 1019.36 1018.70 1017.98 1017.21 1016.38 1015.50 1014.56 1013.58 1012.56 1011.51 1010.44 1009.38 1008.32 1007.29 1006.30 1005.36 1004.48 1003.66 1002.89
Thickness
5403 5403 5402 5402 5402 5402 5403 5405 5406 5411 5419 5422 5421 5422 5422 5423 5425 5429 5432 5435 5438 5443 5446 5450 5453 5457 5460 5463 5466 5470 5473 5477 5481 5484 5488 5491 5495 5499
5388 5388 5387 5387 5387 5388 5388 5390 5390 5392 5397 5404 5404 5405 5404 5406 5408 5411 5414 5418 5422 5426 5429 5433 5437 5441 5444 5447 5451 5454 5457 5461 5465 5468 5472 5476 5480 5483
5373 5373 5372 5371 5372 5373 5373 5374 5375 5375 5379 5386 5387 5388 5388 5389 5391 5394 5397 5401 5405 5408 5412 5417 5420 5424 5427 5431 5435 5438 5441 5445 5449 5452 5456 5460 5464 5469
5358 5358 5357 5357 5357 5357 5358 5359 5359 5360 5362 5367 5371 5370 5372 5373 5375 5378 5381 5384 5388 5392 5396 5400 5404 5408 5411 5415 5418 5422 5426 5429 5433 5436 5441 5446 5450 5452
5343 5342 5342 5342 5342 5342 5343 5343 5345 5346 5347 5350 5354 5354 5355 5356 5359 5362 5365 5368 5372 5376 5380 5384 5388 5392 5395 5399 5402 5406 5410 5414 5418 5421 5424 5428 5433 5437
5329 5328 5328 5327 5327 5327 5328 5329 5330 5331 5333 5335 5338 5339 5340 5341 5342 5345 5351 5353 5357 5361 5365 5368 5372 5375 5379 5383 5388 5391 5393 5397 5401 5405 5409 5413 5417 5420
5316 5315 5315 5314 5314 5314 5315 5316 5316 5318 5319 5321 5324 5325 5326 5326 5327 5331 5335 5340 5344 5347 5351 5355 5358 5362 5364 5368 5371 5374 5378 5382 5386 5391 5395 5398 5401 5405
5304 5303 5302 5302 5301 5302 5302 5303 5303 5304 5306 5308 5310 5312 5312 5312 5314 5316 5319 5325 5332 5336 5335 5342 5344 5349 5352 5355 5358 5361 5364 5368 5372 5377 5380 5384 5386 5390
5290 5289 5289 5289 5288 5288 5289 5290 5291 5292 5293 5295 5297 5298 5300 5301 5301 5304 5306 5310 5317 5321 5321 5329 5332 5336 5341 5343 5346 5350 5353 5356 5359 5363 5367 5370 5374 5377
5278 5277 5276 5275 5275 5276 5278 5279 5280 5281 5282 5283 5285 5287 5288 5288 5289 5291 5294 5298 5304 5307 5307 5314 5320 5325 5330 5332 5335 5338 5341 5344 5348 5351 5355 5359 5362 5365
5267 5266 5265 5264 5265 5266 5267 5268 5269 5271 5271 5273 5275 5276 5277 5277 5277 5279 5281 5284 5292 5296 5295 5298 5306 5311 5318 5322 5324 5326 5329 5332 5336 5340 5343 5348 5351 5354
5257 5255 5255 5255 5255 5255 5255 5256 5257 5260 5261 5263 5264 5264 5264 5265 5265 5266 5267 5270 5276 5282 5284 5285 5290 5293 5303 5312 5313 5315 5317 5320 5325 5329 5333 5337 5339 5341
5246 5245 5244 5244 5245 5245 5246 5246 5247 5248 5249 5250 5251 5252 5253 5254 5254 5255 5255 5257 5261 5267 5269 5270 5275 5278 5282 5294 5302 5304 5306 5310 5313 5318 5322 5326 5328 5330
5235 5234 5234 5234 5235 5235 5235 5236 5236 5236 5236 5237 5239 5241 5241 5242 5243 5244 5245 5247 5249 5253 5256 5257 5261 5265 5269 5276 5286 5294 5296 5299 5302 5308 5312 5316 5319 5321
5225 5225 5224 5224 5224 5223 5223 5224 5224 5222 5223 5224 5227 5228 5229 5229 5231 5233 5236 5238 5241 5243 5245 5246 5249 5254 5257 5263 5271 5278 5284 5289 5291 5296 5301 5305 5308 5311
5214 5213 5213 5212 5211 5211 5211 5210 5210 5210 5211 5212 5214 5216 5217 5218 5220 5222 5225 5228 5231 5235 5236 5238 5240 5243 5247 5253 5257 5265 5270 5276 5282 5285 5289 5294 5297 5301
5203 5201 5200 5199 5198 5198 5198 5197 5198 5199 5199 5200 5201 5203 5205 5208 5210 5212 5214 5217 5219 5224 5228 5230 5231 5233 5237 5242 5248 5255 5260 5265 5269 5273 5278 5283 5289 5292
5191 5188 5187 5186 5185 5185 5186 5186 5186 5187 5187 5188 5189 5191 5194 5196 5199 5202 5204 5206 5210 5214 5217 5219 5221 5224 5229 5235 5240 5245 5250 5254 5259 5262 5265 5271 5279 5285
5178 5176 5175 5174 5174 5174 5174 5174 5175 5176 5176 5177 5178 5180 5183 5185 5188 5191 5194 5197 5200 5204 5206 5208 5210 5212 5217 5227 5235 5236 5239 5243 5247 5253 5257 5261 5269 5276
5166 5164 5163 5163 5163 5163 5163 5163 5164 5166 5166 5168 5169 5171 5173 5176 5179 5182 5185 5187 5191 5194 5198 5200 5202 5205 5208 5215 5223 5229 5230 5233 5238 5244 5249 5254 5260 5267
5156 5155 5154 5153 5153 5154 5154 5154 5155 5156 5157 5159 5161 5163 5165 5167 5170 5173 5176 5180 5183 5186 5190 5195 5198 5199 5201 5204 5211 5221 5225 5227 5230 5234 5239 5244 5251 5258
5147 5146 5146 5145 5145 5145 5145 5146 5147 5148 5149 5151 5153 5156 5158 5160 5163 5166 5169 5172 5176 5179 5184 5188 5190 5191 5193 5197 5204 5211 5217 5222 5224 5228 5232 5237 5241 5250
5140 5139 5138 5137 5137 5137 5137 5138 5139 5141 5142 5144 5146 5149 5151 5154 5157 5160 5163 5166 5169 5174 5177 5181 5184 5186 5188 5192 5196 5202 5207 5213 5217 5223 5229 5232 5237 5243